Flag for USA

Past Weather in Columbus, Georgia, USA — Yesterday and Last 2 Weeks

Now
68 °F

Passing clouds.


Feels Like: 68 °F
Forecast: 78 / 65 °F
Wind: 5 mph from East

Location: Columbus Metropolitan Airport
Current Time: Sep 24, 2020 at 2:39:44 am
Latest Report: Sep 24, 2020 at 1:51 am
Visibility: 10 mi
Pressure29.98 "Hg
Humidity: 84%
Dew Point: 63 °F
Location of ColumbusLocation

Past Weather in Columbus — Graph

°F

Columbus Temperature Yesterday

Maximum temperature yesterday: 79 °F (at 4:51 pm)
Minimum temperature yesterday: 64 °F (at 1:51 am)
Average temperature yesterday: 70 °F

High & Low Weather Summary for the Past Weeks

 TemperatureHumidityPressure
High94 °F (Sep 11, 5:51 pm)100% (Sep 18, 2:51 am)30.33 "Hg (Sep 18, 2:51 am)
Low56 °F (Sep 22, 6:51 am)44% (Sep 13, 4:51 pm)29.63 "Hg (Sep 17, 4:50 am)
Average75 °F75%30.00 "Hg
* Reported Sep 9 12:51 am — Sep 24 12:51 am, Columbus. Weather by CustomWeather, © 2020

Note: Actual official high and low records may vary slightly from our data, if they occured in-between our weather recording intervals... More about our weather records

Columbus Weather History for the Previous 24 Hours

Scroll right to see more
 ConditionsComfort  
Time TempWeatherWind HumidityBarometerVisibility
12:51 am
Thu, Sep 24
69 °FClear.6 mph81%29.98 "Hg10 mi
11:51 pm
Wed, Sep 23
70 °FPassing clouds.8 mph79%29.99 "Hg10 mi
10:51 pm71 °FPassing clouds.7 mph76%29.99 "Hg10 mi
9:51 pm72 °FClear.8 mph76%29.99 "Hg10 mi
8:51 pm73 °FClear.6 mph74%29.98 "Hg10 mi
7:51 pm75 °FClear.6 mph71%29.97 "Hg10 mi
6:51 pm77 °FSunny.5 mph64%29.98 "Hg10 mi
5:51 pm79 °FPartly sunny.6 mph56%29.98 "Hg10 mi
4:51 pm79 °FPartly sunny.No wind56%29.98 "Hg10 mi
3:51 pm78 °FPartly sunny.5 mph60%29.99 "Hg10 mi
2:51 pm78 °FPartly sunny.No wind60%30.02 "Hg10 mi
1:51 pm77 °FPassing clouds.No wind60%30.05 "Hg10 mi
12:51 pm74 °FOvercast.3 mph67%30.07 "Hg10 mi
11:51 am72 °FOvercast.6 mph68%30.09 "Hg10 mi
10:51 am69 °FOvercast.3 mph73%30.09 "Hg10 mi
9:51 am68 °FOvercast.5 mph70%30.09 "Hg10 mi
8:51 am65 °FPartly sunny.6 mph76%30.09 "Hg10 mi
7:51 am64 °FOvercast.3 mph78%30.08 "Hg10 mi
6:51 am64 °FOvercast.3 mph78%30.08 "Hg10 mi
5:51 am64 °FPassing clouds.3 mph78%30.06 "Hg10 mi
4:51 am64 °FOvercast.3 mph78%30.06 "Hg10 mi
3:51 am64 °FPassing clouds.3 mph78%30.05 "Hg10 mi
2:51 am64 °FClear.No wind81%30.06 "Hg10 mi
Weather by CustomWeather, © 2020

See weather overview